{"data":{"norad_id":62725,"epoch":"2026-09-19T22:30:28.347840Z","epoch_age_seconds":66885,"freshness":"FRESH","line1":"1 62725U 25012A   26262.93782810  .00004310  00000+0  21732-3 0  9993","line2":"2 62725  97.4143 333.4962 0003836 312.7219  47.3692 15.17662733 92561","mean_motion":15.17662733,"eccentricity":0.0003836,"inclination_deg":97.4143,"raan_deg":333.4962,"arg_perigee_deg":312.7219,"mean_anomaly_deg":47.3692,"bstar":0.00021732,"rev_number":9256,"period_min":94.882740986432,"perigee_km":510.26314768133,"apogee_km":515.54995629441,"semimajor_km":6891.0435519879,"source":"CELESTRAK","updated_at":"2026-09-20T09:00:33.981069Z"}}